Weather History for KS25 - February, 2013

Change the Weather History Date:

Monday, February 4, 2013

  Actual Average (KISN) Record (KISN)
Temperature  
Mean Temperature 27 °F 14 °F  
Max Temperature 37 °F 24 °F 53 °F (1991)
Min Temperature 17 °F 3 °F -49 °F (1907)
Degree Days  
Heating Degree Days 38 51  
Month to date heating degree days 207  
Since 1 July heating degree days 5628  
Cooling Degree Days 0 0  
Month to date cooling degree days 0  
Year to date cooling degree days 0  
Moisture  
Dew Point 25 °F    
Average Humidity 83    
Maximum Humidity 93    
Minimum Humidity 70    
Precipitation  
Precipitation 0.00 in 0.01 in 0.29 in (1967)
Month to date precipitation 0.05  
Year to date precipitation 0.64  
Sea Level Pressure  
Sea Level Pressure 29.70 in    
Wind  
Wind Speed 9 mph (WSW)    
Max Wind Speed 20 mph    
Max Gust Speed 28 mph    
Visibility 10 miles    
Events      
T = Trace of Precipitation, MM = Missing Value Source: NWS Daily Summary

Daily Weather History Graph

Daily Weather History Graph

Search for Another Location

Airport or City:

Trip Planner

Search our weather history database for the weather conditions in past years. The results will help you decide how hot, cold, wet, or windy it might be!

Date:

Astronomy

Feb. 04, 2013 Rise Set
Actual Time 8:15 AM CST 5:59 PM CST
Civil Twilight 7:42 AM CST 6:31 PM CST
Nautical Twilight 7:05 AM CST 7:08 PM CST
Astronomical Twilight 6:29 AM CST 7:44 PM CST
Moon 2:59 AM CST (2/4) 12:17 PM CST (2/4)
Length of Visible Light 10h 49m
Length of Day
9h 43m
Last Quarter, 37% of the Moon is Illuminated
Feb 4
Last Quarter
Feb 10
New
Feb 17
First Quarter
Feb 25
Full
Mar 4
Last Quarter

Hourly Weather History & Observations

Time (CST) Temp. Windchill Dew Point Humidity Pressure Visibility Wind Dir Wind Speed Gust Speed Precip Events Conditions
12:15 AM 17.6 °F 9.3 °F 15.8 °F 93% 29.88 in 10.0 mi SSE 5.8 mph - N/A   Overcast
12:35 AM 19.4 °F 10.4 °F 15.8 °F 86% 29.88 in 10.0 mi SSW 6.9 mph - N/A   Overcast
12:55 AM 19.4 °F 14.3 °F 15.8 °F 86% 29.90 in 10.0 mi WSW 3.5 mph - N/A   Overcast
1:15 AM 19.4 °F 14.3 °F 15.8 °F 86% 29.89 in 10.0 mi WSW 3.5 mph - N/A   Overcast
1:35 AM 19.4 °F 14.3 °F 15.8 °F 86% 29.88 in 10.0 mi SW 3.5 mph - N/A   Overcast
1:55 AM 19.4 °F 12.8 °F 15.8 °F 86% 29.88 in 10.0 mi WSW 4.6 mph - N/A   Overcast
2:15 AM 19.4 °F 12.8 °F 17.6 °F 93% 29.88 in 10.0 mi SW 4.6 mph - N/A   Overcast
2:35 AM 19.4 °F - 17.6 °F 93% 29.87 in 10.0 mi Calm Calm - N/A   Overcast
2:55 AM 19.4 °F 12.8 °F 17.6 °F 93% 29.87 in 10.0 mi SSW 4.6 mph - N/A   Overcast
3:15 AM 21.2 °F 13.6 °F 19.4 °F 93% 29.86 in 10.0 mi SSW 5.8 mph - N/A   Overcast
4:55 AM 23.0 °F 15.8 °F 19.4 °F 86% 29.82 in 10.0 mi SSW 5.8 mph - N/A   Overcast
5:15 AM 23.0 °F 17.0 °F 19.4 °F 86% 29.82 in 10.0 mi SW 4.6 mph - N/A   Overcast
5:35 AM 23.0 °F 15.8 °F 21.2 °F 93% 29.82 in 10.0 mi SW 5.8 mph - N/A   Overcast
5:55 AM 23.0 °F 14.7 °F 21.2 °F 93% 29.81 in 10.0 mi SSW 6.9 mph - N/A   Overcast
6:15 AM 24.8 °F 16.1 °F 21.2 °F 86% 29.80 in 10.0 mi SSW 8.1 mph - N/A   Overcast
6:35 AM 24.8 °F 15.3 °F 21.2 °F 86% 29.79 in 10.0 mi SSW 9.2 mph - N/A   Overcast
6:55 AM 24.8 °F 15.3 °F 23.0 °F 93% 29.79 in 10.0 mi SSW 9.2 mph - N/A   Overcast
7:15 AM 24.8 °F 16.1 °F 23.0 °F 93% 29.78 in 10.0 mi SSW 8.1 mph - N/A   Overcast
7:35 AM 24.8 °F 15.3 °F 23.0 °F 93% 29.77 in 10.0 mi SSW 9.2 mph - N/A   Overcast
7:55 AM 24.8 °F 15.3 °F 23.0 °F 93% 29.76 in 10.0 mi South 9.2 mph - N/A   Overcast
8:15 AM 24.8 °F 15.3 °F 23.0 °F 93% 29.74 in 10.0 mi South 9.2 mph - N/A   Overcast
8:35 AM 24.8 °F 16.9 °F 23.0 °F 93% 29.73 in 10.0 mi South 6.9 mph - N/A   Mostly Cloudy
8:55 AM 24.8 °F 17.9 °F 23.0 °F 93% 29.72 in 10.0 mi South 5.8 mph - N/A   Partly Cloudy
9:15 AM 26.6 °F 20.0 °F 24.8 °F 93% 29.71 in 10.0 mi South 5.8 mph - N/A   Clear
9:35 AM 26.6 °F 16.8 °F 24.8 °F 93% 29.70 in 10.0 mi SSW 10.4 mph - N/A   Clear
9:55 AM 26.6 °F 16.8 °F 24.8 °F 93% 29.69 in 10.0 mi SSW 10.4 mph - N/A   Clear
10:15 AM 28.4 °F 19.7 °F 24.8 °F 86% 29.68 in 10.0 mi SSW 9.2 mph - N/A   Clear
10:35 AM 28.4 °F 20.4 °F 26.6 °F 93% 29.68 in 10.0 mi SW 8.1 mph - N/A   Clear
10:55 AM 32.0 °F 22.1 °F 26.6 °F 80% 29.66 in 10.0 mi SW 13.8 mph - N/A   Clear
11:15 AM 32.0 °F 21.6 °F 26.6 °F 80% 29.66 in 10.0 mi SW 15.0 mph - N/A   Clear
11:35 AM 32.0 °F 21.6 °F 26.6 °F 80% 29.65 in 10.0 mi SW 15.0 mph 21.9 mph N/A   Mostly Cloudy
11:55 AM 32.0 °F 20.8 °F 28.4 °F 87% 29.64 in 10.0 mi SW 17.3 mph - N/A   Mostly Cloudy
12:15 PM 32.0 °F 20.8 °F 28.4 °F 87% 29.63 in 10.0 mi SW 17.3 mph 20.7 mph N/A   Scattered Clouds
12:35 PM 33.8 °F 23.2 °F 28.4 °F 81% 29.62 in 10.0 mi SW 17.3 mph - N/A   Partly Cloudy
12:55 PM 35.6 °F 25.5 °F 28.4 °F 75% 29.61 in 10.0 mi WSW 17.3 mph 23.0 mph N/A   Clear
1:15 PM 35.6 °F 26.2 °F 28.4 °F 75% 29.61 in 10.0 mi WSW 15.0 mph - N/A   Scattered Clouds
1:35 PM 35.6 °F 25.9 °F 28.4 °F 75% 29.60 in 10.0 mi SW 16.1 mph - N/A   Scattered Clouds
1:55 PM 35.6 °F 27.1 °F 28.4 °F 75% 29.60 in 10.0 mi SW 12.7 mph - N/A   Partly Cloudy
2:15 PM 35.6 °F 26.2 °F 28.4 °F 75% 29.59 in 10.0 mi WSW 15.0 mph - N/A   Partly Cloudy
2:35 PM 37.4 °F 28.2 °F 28.4 °F 70% 29.59 in 10.0 mi WSW 16.1 mph 20.7 mph N/A   Clear
2:55 PM 37.4 °F 27.8 °F 28.4 °F 70% 29.59 in 10.0 mi West 17.3 mph 23.0 mph N/A   Clear
3:15 PM 37.4 °F 27.8 °F 28.4 °F 70% 29.59 in 10.0 mi West 17.3 mph 24.2 mph N/A   Clear
3:35 PM 37.4 °F 28.5 °F 28.4 °F 70% 29.59 in 10.0 mi West 15.0 mph 20.7 mph N/A   Clear
3:55 PM 35.6 °F 25.9 °F 28.4 °F 75% 29.59 in 10.0 mi West 16.1 mph 21.9 mph N/A   Clear
4:15 PM 35.6 °F 26.2 °F 28.4 °F 75% 29.60 in 10.0 mi West 15.0 mph 24.2 mph N/A   Scattered Clouds
4:35 PM 35.6 °F 25.9 °F 28.4 °F 75% 29.59 in 10.0 mi West 16.1 mph - N/A   Scattered Clouds
4:55 PM 35.6 °F 26.2 °F 28.4 °F 75% 29.59 in 10.0 mi West 15.0 mph - N/A   Scattered Clouds
5:15 PM 35.6 °F 26.6 °F 28.4 °F 75% 29.60 in 10.0 mi WNW 13.8 mph - N/A   Scattered Clouds
5:35 PM 35.6 °F 25.5 °F 28.4 °F 75% 29.60 in 10.0 mi West 17.3 mph - N/A   Partly Cloudy
5:55 PM 35.6 °F 25.2 °F 28.4 °F 75% 29.59 in 10.0 mi West 18.4 mph 24.2 mph N/A   Clear
6:15 PM 35.6 °F 25.9 °F 28.4 °F 75% 29.59 in 10.0 mi West 16.1 mph - N/A   Clear
6:35 PM 35.6 °F 25.5 °F 28.4 °F 75% 29.59 in 10.0 mi West 17.3 mph - N/A   Clear
7:15 PM 33.8 °F 23.9 °F 28.4 °F 81% 29.60 in 10.0 mi West 15.0 mph - N/A   Partly Cloudy
7:35 PM 33.8 °F 24.8 °F 28.4 °F 81% 29.61 in 10.0 mi West 12.7 mph - N/A   Clear
7:55 PM 33.8 °F 24.8 °F 28.4 °F 81% 29.61 in 10.0 mi West 12.7 mph - N/A   Clear
8:15 PM 33.8 °F 24.8 °F 28.4 °F 81% 29.61 in 10.0 mi West 12.7 mph - N/A   Clear
8:55 PM 35.6 °F 26.6 °F 28.4 °F 75% 29.64 in 10.0 mi WNW 13.8 mph - N/A   Clear
9:15 PM 35.6 °F 26.6 °F 28.4 °F 75% 29.65 in 10.0 mi WNW 13.8 mph 18.4 mph N/A   Clear
9:35 PM 33.8 °F 25.8 °F 28.4 °F 81% 29.64 in 10.0 mi WNW 10.4 mph - N/A   Clear
9:55 PM 33.8 °F 25.8 °F 28.4 °F 81% 29.64 in 10.0 mi West 10.4 mph - N/A   Clear
10:15 PM 33.8 °F 23.9 °F 28.4 °F 81% 29.64 in 10.0 mi West 15.0 mph 20.7 mph N/A   Partly Cloudy
10:35 PM 32.0 °F 22.1 °F 28.4 °F 87% 29.64 in 10.0 mi West 13.8 mph - N/A   Partly Cloudy
10:55 PM 33.8 °F 23.9 °F 28.4 °F 81% 29.66 in 10.0 mi WNW 15.0 mph 19.6 mph N/A   Clear
11:15 PM 32.0 °F 21.6 °F 28.4 °F 87% 29.67 in 10.0 mi West 15.0 mph 19.6 mph N/A   Clear
11:35 PM 32.0 °F 20.1 °F 28.4 °F 87% 29.68 in 10.0 mi West 19.6 mph 27.6 mph N/A   Clear
11:55 PM 32.0 °F - 26.6 °F 80% 29.69 in 10.0 mi North - - N/A   Clear